www.pogodaiklimat.ru

ПОГОДА в Бишопе, CA

  • Прогноз погоды в Бишопе
  • Монитор погоды в Бишопе
  • Климат в Бишопе

АРХИВ ПОГОДЫ в Бишопе

Время (UTC), дата Ветер
(напр.,м/с)
 
Видим.   Явления Облачность Т
(С)
Тd
(С)
f
(%)
Тe
(С)
Тes
(С)
Комфортность

P
(гПа)

Po
(гПа)
Тmin
(С)
Tmax
(С)
R
(мм)
SD
(см)
19:56 18.08 Ю  7
{13} 
16 км    ясно  +36.1  -6.1  +32  +35  жарко  1006.4  870.1         
20:56 18.08 ЮВ  9
{12} 
16 км    ясно  +36.1  -6.1  +32  +32  жарко  1005.8  869.5         
21:56 18.08 Ю  6
{13} 
16 км    ясно  +36.7  -6.7  +32  +36  жарко  1005.2  868.9         
22:56 18.08 ЮВ  10
{13} 
16 км    ясно  +33.3  -5.6  +29  +29  жарко  1005.5  868.9  +30.0  +36.7     
23:56 18.08 ЮВ  9
{14} 
16 км    ясно  +33.3  -5.0  +29  +29  жарко  1005.8  868.9         
00:56 19.08 ЮВ  16 км    ясно  +31.7  -5.0  +28  +28  жарко  1006.1  868.9         
01:56 19.08 ЮВ  16 км    ясно  +28.3  -5.0  11  +25  +25  комфорт  1006.5  869.5         
02:56 19.08 ЮВ  16 км    ясно  +27.8  -3.9  12  +25  +25  комфорт  1006.9  870.4         
03:56 19.08 ЮВ  8
{11} 
16 км    ясно  +27.2  -2.8  14  +25  +25  комфорт  1007.6  871.0         
04:56 19.08 ЮВ  8
{12} 
16 км    ясно  +26.1  -0.6  17  +24  +24  комфорт  1008.0  871.6  +26.1  +33.3     
05:56 19.08 ЮВ  16 км    ясно  +25.6  0.0  19  +24  +24  комфорт  1008.0  871.8         
06:56 19.08 Ю  16 км    ясно  +23.3  +0.6  22  +22  +22  комфорт  1008.5  872.1         
07:56 19.08 С  16 км    ясно  +18.3  +2.2  34  +19  +19    1009.1  872.4         
08:56 19.08 З  16 км    ясно  +16.1  +1.1  36  +16  +16    1009.8  872.7         
09:56 19.08   16 км    ясно  +14.4  +0.6  39  +14  +14    1010.3  873.0         
10:56 19.08 З  16 км    ясно  +13.3  +1.1  43  +12  +12    1010.9  873.3  +12.8  +26.1     
11:56 19.08 С  16 км    ясно  +11.7  +2.2  52  +10  +10    1011.8  873.9         
12:56 19.08 З  16 км    ясно  +13.9  +2.2  45  +13  +13    1012.4  874.5         
13:56 19.08 СЗ  16 км    ясно  +18.3  +3.9  38  +19  +20    1012.6  874.8         
14:56 19.08   16 км    ясно  +22.8  +2.8  27  +22  +26  комфорт  1012.2  874.8         
15:56 19.08   16 км    ясно  +27.2  +2.2  20  +26  +34  жарко  1012.0  874.8         
16:56 19.08 В  16 км    ясно  +28.3  +1.7  18  +26  +34  жарко  1011.7  874.5  +11.1  +28.9     
17:56 19.08 нст  16 км    ясно  +31.1  +1.1  15  +28  +44  жарко  1010.9  874.2         
18:56 19.08 Ю  4
{8} 
16 км    ясно  +33.3  -1.1  11  +30  +41  жарко  1010.1  873.3         
19:56 19.08 Ю  16 км    ясно  +32.8  -1.7  11  +29  +36  жарко  1009.9  872.7         
20:56 19.08 Ю  16 км    ясно  +35.0  -3.3  +31  +35  жарко  1009.1  872.1         
21:56 19.08 Ю  6
{11} 
16 км    ясно  +34.4  -3.3  +30  +35  жарко  1008.7  871.6         
22:56 19.08 Ю  16 км    ясно  +35.0  -2.8  +31  +34  жарко  1008.4  871.3  +27.8  +35.6     
23:56 19.08 ЮВ  8
{11} 
16 км    ясно  +33.3  -2.2  10  +30  +30  жарко  1008.6  871.3         
00:56 20.08 ЮВ  16 км    ясно  +31.7  -0.6  13  +29  +29  жарко  1008.6  871.3         
01:56 20.08 ЮВ  16 км    ясно  +28.9  -0.6  15  +26  +26  жарко  1008.7  871.6         
02:56 20.08 ЮВ  16 км    ясно  +27.8  0.0  16  +25  +25  комфорт  1009.1  872.1         
03:56 20.08 ЮВ  16 км    ясно  +27.2  0.0  17  +25  +25  комфорт  1009.5  872.7         
04:56 20.08 ЮВ  16 км    ясно  +26.7  0.0  17  +25  +25  комфорт  1010.0  873.3  +26.7  +35.0     
05:56 20.08 ЮЗ  16 км    ясно  +22.2  +1.1  25  +22  +22  комфорт  1010.8  873.6         
06:56 20.08 ЮЗ  16 км    ясно  +22.8  +1.1  24  +22  +22  комфорт  1010.5  873.9         
07:56 20.08 СЗ  16 км    ясно  +17.2  +2.8  38  +17  +17    1011.5  874.2         
08:56 20.08 З  16 км    ясно  +15.6  +2.2  40  +15  +15    1011.6  874.2         
09:56 20.08 СЗ  16 км    ясно  +15.0  +2.8  44  +14  +14    1011.8  874.2         
10:56 20.08 СЗ  16 км    ясно  +12.2  +2.2  50  +11  +11    1012.3  874.5  +12.2  +26.7     
11:56 20.08 С  16 км    ясно  +11.1  +2.2  54  +9  +9    1013.2  875.1         
12:56 20.08 С  16 км    ясно  +13.3  +2.8  49  +13  +13    1013.7  875.3         
13:56 20.08   16 км    ясно  +18.9  +2.2  33  +19  +20    1013.9  875.9         
14:56 20.08 С  16 км    ясно  +23.9  +2.2  24  +23  +26  комфорт  1013.2  875.6         
15:56 20.08   16 км    ясно  +26.7  +2.2  20  +25  +34  комфорт  1012.9  875.6         
16:56 20.08 нст  16 км    ясно  +29.4  +2.2  17  +27  +39  жарко  1012.4  875.3  +11.1  +29.4     
17:56 20.08 нст  16 км    ясно  +31.7  +2.2  15  +29  +45  жарко  1011.9  874.8         
18:56 20.08 нст  16 км    ясно  +33.3  -0.6  11  +30  +45  жарко  1010.9  874.2         

 

Местоположение метеостанции Bishop Airport: широта 37.3711 долгота -118.3581 высота над уровнем моря 1256 м.

В архиве по умолчанию представлена погода в Бишопе за последние 1-2 суток. Обновление информации о фактической погоде в базе происходит ежечасно! Архивные данные за месяц целиком и за предыдущие месяцы Вы можете получить, выбрав интересующий диапазон дат из раскрывающегося списка и нажав кнопку "Ввод!".

Внимание! Архив погоды МЕТАР в базе сайта хранится не более 60 дней. Нет смысла пытаться выбрать более раннюю дату.

Внимание! Время в таблицах - всемирное. Для получения местного времени необходимо прибавить поправку, которая в Бишопе равна -8 ч.

Ветер - указаны скорость ветра в м/с и направление, откуда дует ветер: С - северный, СВ - северо-восточный, В - восточный, ЮВ - юго-восточный, Ю - южный, ЮЗ - юго-западный, З - западный, СЗ - северо-западный.
Видимость - горизонтальная дальность видимости в метрах или километрах. При видимости от 1 до 10 км при отсутствии осадков обычно наблюдается дымка, при ухудшении видимости до 1 км и менее - туман. В сухую погоду видимость может ухудшаться дымом, пылью или мглою.
Атмосферные явления - указаны явления, наблюдавшиеся в указанный момент времени.
Облачность - указаны через наклонную черту верхняя и нижняя облачность в баллах и высота нижней границы облаков в метрах. Внимание: облачность, как и прочие метеорологические величины в США измеряются автоматическими метеостанциями. Указанные значения в баллах носят условный характер и показывают процент времени, в течение которого, в среднем, лазерный луч высотомера отражался от облаков обратно.
T - Температура воздуха - температура, измеренная на высоте 2 м над землей.
Td - Температура точки росы - температура, при понижении до которой содержащийся в воздухе водяной пар достигнет насыщения.
f - Относительная влажность воздуха - влажноcть воздуха, измеренная на высоте 2 м над землей.
Te - Эффективная температура - температура, которую ощущает одетый по сезону человек в тени. Характеристика душности погоды. При расчете учитывается влияние влажности воздуха и скорости ветра на теплоощущения человека.
Tes - Эффективная температура на солнце - температура, которую ощущает человек, с поправкой на солнечный нагрев. Характеристика знойности погоды. Зависит от высоты солнца над горизонтом, облачности и скорости ветра. Ночью, в пасмурную погоду, а также при ветре 12 м/с и более поправка равна нулю.
P - Атмосферное давление - приведенное к уровню моря атмосферное давление.
Po - Атмосферное давление - измеренное на уровне метеостанции атмосферное давление.
Tmin - Минимальная температура - минимум температуры воздуха на высоте 2 м над землей.
Tmax - Максимальная температура - максимум температуры воздуха на высоте 2 м над землей.
R - Количество осадков - Количество выпавших осадков за 3 или 6 часов, мм.
SD - Снежный покров - Высота снежного покрова, см.